Погода в Вилюйске

Погода в Вилюйске : погода сейчас, прогноз погоды и архив. Всё, что Вы хотите узнать о погоде в Вилюйске!

Хотите узнать прогноз погоды в Вилюйске? Тогда Вам сюда: Погода в Вилюйске

Поиск расширенной информации на нашем сайте:

Другие новости

Новости СМИ2

Главная страница сайта

Новости сайта

02.10.2013

Напоминаем, что на нашем новом сайте вы можете получить высокодетализированные прогнозы погоды по пунктам России, СНГ и мира (включающие важные для авиации метеовеличины, такие как направление и скорость ветра, видимость, явления погоды, количество и форма облачности, нижняя и верхняя граница облачности), а также ознакомиться с разнообразными материалами по авиационной метеорологии и подборкой полезных ссылок на эту тему.

Сайт Метеоцентр.Азия посвящён разработке технологий оптимизации авиаметеорологического обслуживания, включая проектирование и перспективное создание нескольких автоматизированных авиаметеорологических систем:
- система выпуска высокодетальных прогностических карт явлений погоды для нижнего воздушного пространства по России и ближнему зарубежью;
- система верификации прогнозов TAF (выпускаемых синоптиками официальных АМСГ РФ и ближнего зарубежья) и AUTOTAF (выпускаемых сайтом Метеоцентр.Азия) - выявление ошибок, онлайн-сопоставление с фактической погодой METAR, автоматическое внесение коррективов в прогнозы при резком отклонении фактической погоды от прогноза, подсчёт оправдываемости прогнозов по элементам и в целом;
- система обработки, анализа и отображения авиаметеорологической информации для применения провайдерами метеорологической информации.

Рекомендуем: Одежда и обувь Adidas: адидас дисконт каталог. Купить Фирменные товары adidas.

Погода в Вилюйске - сегодня

Время (UTC), дата Ветер
(°,м/с) 
Видим.   Явления Облачность Т
(°С)
Тd
(°С)
f(%) Тe
(°С)
Pmin
(гПа)
dP
(гПа)
Po
(мм)
O2
(г/м3)
Тmin Tmax R s Состояние
почвы
15 13.01.17 240 (ЮЗ) 20000 м    ясно 
-38.1 -41.5 70 -43  1044.1  0.2  771  363           
18 13.01.17 250 (З) 20000 м    ясно 
-38.1 -41.5 70 -39  1044.4  0.2  771  363           
21 13.01.17 230 (ЮЗ) 20000 м    ясно 
-38.6 -42 70 -40  1045.5  1.1  772  364           
00 14.01.17 240 (ЮЗ) 20000 м    ясно 
-39.2 -42.4 72 -40  1046  0.5  772  365  -39.3      34  равномерный
сухой снег
100% 
03 14.01.17 200 (Ю) 20000 м    6/0 верхняя 
[Ci fib]
-39.3 -42.9 68 -44  1046.5  0.5  772  365  -39.3         
06 14.01.17 тихо ()   20000 м    8/0 верхняя 
[Ci fib]
-38.3 -41.5 72 -38  1046.6  0.1  772  364           
09 14.01.17 тихо ()   20000 м    4/0 верхняя 
[Ci fib]
-38.9 -42.4 69 -39  1047.3  0.7  773  365           
12 14.01.17 350 (С) 20000 м    4/0 верхняя 
[Ci fib]
-40.1 -43.3 72 -41  1047.8  0.4  773  367    -38.2       
15 14.01.17 350 (С) 20000 м    6/0 верхняя 
[Ci fib]
-40.1 -43.3 72 -41  1047.8  773  367           
18 14.01.17 350 (С) 20000 м    4/0 верхняя 
[Ci fib]
-40.8 -44.4 68 -42  1047.9  773  368           
21 14.01.17 350 (С) 20000 м    4/0 верхняя 
[Ci fib]
-41.3 -44.4 72 -43  1047.6  -0.3  773  369           
00 15.01.17 тихо ()   20000 м    4/0 верхняя 
[Ci fib]
-42.2 -45.5 70 -42  1047.7  773  371  -42.2      34  равномерный
сухой снег
100% 
03 15.01.17 тихо ()   20000 м  туман поземный  ясно 
-42.1 -45.5 69 -42  1046.9  -0.8  772  370  -42.5         
06 15.01.17 тихо ()   20000 м    ясно 
-39.6 -42.9 71 -40  1045.6  -1  772  366           
09 15.01.17 тихо ()   20000 м  туман поземный  ясно 
-40 -43.3 71 -40  1045.2  -0.1  772  366           
12 15.01.17 тихо ()   20000 м    ясно 
-40.9 -44.4 69 -41  1045.9  0.2  772  368    -39.4       
15 15.01.17 тихо ()   20000 м    ясно 
-40.3 -43.8 69 -40  1044.8  -1  771  367           
18 15.01.17 050 (СВ) 20000 м    ясно 
-40.2 -43.3 72 -41  1044  -0.7  770  366           
21 15.01.17 тихо ()   20000 м  туман поземный  ясно 
-40.4 -43.8 70 -40  1043.3  -0.7  770  366           
00 16.01.17 тихо ()   20000 м  туман поземный  ясно 
-40.9 -44.4 69 -41  1043.1  -0.2  770  367  -40.9      34  равномерный
сухой снег
100% 
03 16.01.17 тихо ()   20000 м  туман поземный  ясно 
-40.3 -43.8 69 -40  1042.6  -0.5  769  366           
06 16.01.17 тихо ()   20000 м    6/0 верхняя 
[Ci fib]
-39 -42.4 70 -39  1041.6  -0.9  769  363           
09 16.01.17 240 (ЮЗ) 20000 м  туман поземный  ясно 
-39.3 -42.9 68 -40  1041.5  -0.1  769  364           
12 16.01.17 тихо ()   20000 м    ясно 
-40 -43.3 71 -40  1041.4  -0.2  768  365    -39.1       
15 16.01.17 230 (ЮЗ) 20000 м  туман поземный  ясно 
-40.2 -43.3 72 -41  1041.2  -0.2  768  365           
Время (UTC), дата Ветер
(°,м/с) 
Видим.   Явления Облачность Т
(°С)
Тd
(°С)
f(%) Тe
(°С)
Pmin
(гПа)
dP
(гПа)
Po
(мм)
O2
(г/м3)
Тmin Tmax R s Состояние
почвы

Для получения пояснительной информации подведите курсор к названию столбца.

ПОГОДА в Вилюйске - архив

Всё, что Вы хотите узнать о погоде в Вилюйске - удобно и подробно!

Выберите нужную дату (начиная с 1 января 2015* года) и нажмите кнопку "Найти".
Будут отображены архивные сводки погоды по пункту Вилюйск, начиная с указанной даты.


Отображать данные в формате CSV (для использования в таблицах Excel)


Внимание! Наш архив погоды предназначен исключительно для личного некоммерческого использования в познавательных целях. Если Вам необходимы официальные справки о состоянии погоды (для производственных, юридических, коммерческих и т.п. целей), обращайтесь в органы Росгидромета.

*Примечание: данная дата относится к архиву по метеостанциям СССР (Россия, СНГ, Балтия).
Архив по метеостанциям Зарубежной Европы и Азии (кроме Китая) хранится 10 дней, по другим регионам земного шара (Китай, Африка, Америка, Австралия, Океания) - 1 день.

Вилюйск - район местоположения метеостанции


Название, широта, долгота, высота метеостанции:
Вилюйск 63.8°ш. 121.6°д. 111 м над ур. моря [Российская Федерация]

Дополнительная информация

В oтличие oт бoльшинства пoгoдных сайтoв мы публикуем пoдрoбную метеoинфoрмацию в детальнoм прoфессиoнальнoм фoрмате.

Характеристики температуры и влажнoсти вoздуха измеряются на высoте 2 м в тени вдали oт зданий и деревьев.
Скoрoсть ветра измеряется на высoте 10 м (на урoвне рoста челoвека скoрoсть ветра ниже в 1.5-2 раза). Если метеoстанция нахoдится в гoрoде или в лесу, тo скoрoсть ветра занижена на 2-4 м/с пo сравнению с oткрытым местoм. Скoрoсть ветра над акватoриями крупных рек и oзёр, а также на вершинах хoлмoв на 2-5 м/с выше, чем в oбычных услoвиях.
Атмoсфернoе давление в разных тoчках местнoсти мoжет значительнo oтличаться oт давления на метеoстанции, в зависимoсти oт услoвий рельефа (при пoдъёме на 10 м давление пoнижается примернo на 1 мм рт.ст.).